Regional Weather Roundup
Issued by NWS

Home | Current Version | Previous Version | Graphics & Text | Print | Product List | Glossary On
Versions: 1 2 3 4 5 6 7 8 9 10 11 12 13 14 15 16 17 18 19 20 21 22 23 24 25 26 27 28
000
ASUS45 KBOU 300410
RWRCO

WEATHER ROUNDUP FOR COLORADO
NATIONAL WEATHER SERVICE DENVER/BOULDER CO
1000 PM MDT THU SEP 29 2016

NOTE: "FAIR" INDICATES FEW OR NO CLOUDS BELOW 12000 FEET WITH NO
SIGNIFICANT WEATHER AND/OR OBSTRUCTIONS TO VISIBILITY.

COZ001>005-013-030-031-300500-
...NORTHWEST COLORADO...

CITY           SKY/WX    TMP DP  RH WIND       PRES   REMARKS
CRAIG          MOCLDY    53  49  86 CALM      30.38S
HAYDEN         FAIR      55  46  71 CALM      30.40S
MEEKER         LGT RAIN  56  52  86 NE3       30.40S
MOUNT WERNER   NOT AVBL
STEAMBOAT SPGS CLOUDY    55  47  75 CALM      30.41S
WALDEN           N/A     52  41  66 NW5       30.46F
$$

COZ006>008-011-300500-
...WEST CENTRAL VALLEYS...

CITY           SKY/WX    TMP DP  RH WIND       PRES   REMARKS
GRAND JUNCTION LGT RAIN  61  54  77 SE5       30.34R
MONTROSE       LGT RAIN  57  51  80 SW5       30.42R
EAGLE          FAIR      57  43  58 E7        30.41S
RIFLE          LGT RAIN  60  53  77 W7        30.37S
DELTA          CLOUDY    61  55  79 CALM      30.38
NUCLA          LGT RAIN  55  52  88 CALM      30.45S
$$

COZ017>023-064>068-300500-
...SOUTHWEST COLORADO...

CITY           SKY/WX    TMP DP  RH WIND       PRES   REMARKS
DURANGO        CLOUDY    53  50  89 CALM      30.45S
CORTEZ         CLOUDY    54  52  93 N3        30.41S
PAGOSA SPRINGS RAIN      53  47  81 NE6       30.51F
TELLURIDE      CLOUDY    49  41  72 CALM      30.55F
WOLF CREEK PAS SNOW      36  36 100 SW9G21    30.73S VSB<1/4
$$

COZ009-010-012-014-032>034-037-058>063-300500-
...CENTRAL COLORADO...

CITY           SKY/WX    TMP DP  RH WIND       PRES   REMARKS
ASPEN          FAIR      51  43  74 S7        30.46S
BUENA VISTA    FAIR      59  32  36 NW7       30.44S
COPPER MTN     FAIR      45  32  61 W3        30.69S
BERTHOUD PASS  FAIR      37  27  65 N6        30.71F
COTTONWOOD PAS FAIR      55  32  41 SW14G21   30.56S
GUNNISON       FAIR      55  45  67 CALM      30.47S
KREMMLING      FAIR      54  36  50 CALM      30.43S
LEADVILLE      FAIR      45  27  49 CALM      30.55R
MONARCH PASS   DRIZZLE   41  34  75 SW33G40   30.77F
SALIDA         MOCLDY    61  35  37 SW6       30.49S
SUNLIGHT       CLOUDY    45  43  93 W6        30.65S
WILKERSON PASS FAIR      45  27  49 SW7       30.67S
$$

COZ069>075-300500-
...SAN LUIS VALLEY/SANGRE DE CRISTO MOUNTAINS...

CITY           SKY/WX    TMP DP  RH WIND       PRES   REMARKS
ALAMOSA        FAIR      50  36  58 E7        30.43F
LA VETA PASS   FAIR      50  30  46 MISG      30.58F
SAGUACHE       MOCLDY    59  36  41 NW13      30.45F
$$

COZ035-036-038>040-300500-
...NORTHERN COLORADO FRONT RANGE...

CITY           SKY/WX    TMP DP  RH WIND       PRES   REMARKS
DENVER INTL AP FAIR      64  33  31 S12       30.24S
DMNS CITY PARK   N/A     62  44  52 S2G8      30.24S
AURORA         PTCLDY    65  36  34 S14       30.26S
FRONT RANGE AP NOT AVBL
ERIE MUNI ARPT FAIR      58  40  51 CALM      30.22S
BOULDER MUN AP FAIR      61  43  51 CALM      30.23R
CENTENNIAL     FAIR      66  36  32 S13       30.28S
BROOMFIELD     PTCLDY    66  37  34 VRB3      30.26S
FORT COLLINS   FAIR      66  41  39 N12       30.21S
LONGMONT       FAIR      58  43  56 CALM      30.24S
$$

COZ041-046-047-076>085-087-088-300500-
...PIKES PEAK/PALMER DIVIDE AND SOUTHERN FOOTHILLS...

CITY           SKY/WX    TMP DP  RH WIND       PRES   REMARKS
COLO. SPRINGS  FAIR      61  38  42 CALM      30.34S
A. F. ACADEMY  FAIR      61  37  40 SE6       30.34F
SCHRIEVER AFB  NOT AVBL
ELLICOTT       NOT AVBL
FALCON         FAIR      53  38  55 CALM      30.38F
FORT CARSON    FAIR      59  36  42 NE2       30.30F
LIMON          FAIR      55  41  59 SE10      30.31F
MONUMENT HILL  FAIR      55  37  50 S14       30.38F
TRINIDAD       FAIR      63  33  32 CALM      30.30F
$$

COZ042>045-048>051-090-091-300500-
...NORTHEAST COLORADO...

CITY           SKY/WX    TMP DP  RH WIND       PRES   REMARKS
GREELEY ARPT   FAIR      61  41  48 CALM      30.22S
AKRON          FAIR      56  40  55 SE14      30.27S
BURLINGTON     FAIR      58  40  51 S18       30.30S
WRAY           FAIR      55  39  54 SE10      30.29S
STERLING       FAIR      63  43  48 SE14G21   30.23S
HOLYOKE        FAIR      55  41  58 SE8       30.29S
FORT MORGAN    FAIR      61  40  46 SE13G20   30.24F
$$

COZ086-089-092>099-300500-
...SOUTHEAST COLORADO...

CITY           SKY/WX    TMP DP  RH WIND       PRES   REMARKS
PUEBLO         FAIR      65  31  28 E12       30.21S
LA JUNTA       FAIR      67  42  40 SE8       30.23S
LAMAR          FAIR      63  43  48 SE16      30.23F
SPRINGFIELD      N/A     52  44  74 S9        30.32R
$$




USA.gov is the U.S. government's official web portal to all federal, state and local government web resources and services.